TimeAKST,TemperatureF,Dew PointF,Humidity,Sea Level PressureIn,VisibilityMPH,Wind Direction,Wind SpeedMPH,Gust SpeedMPH,PrecipitationIn,Events,Conditions,WindDirDegrees,DateUTC
12:56 AM,36.0,28.0,73,29.99,10.0,NNW,3.5,-,N/A,,Overcast,330,2013-01-26 09:56:00
1:56 AM,36.0,28.9,76,30.00,10.0,Calm,Calm,-,N/A,,Overcast,0,2013-01-26 10:56:00
2:56 AM,36.0,28.0,73,29.99,10.0,Calm,Calm,-,N/A,,Overcast,0,2013-01-26 11:56:00
3:56 AM,36.0,28.0,73,29.99,10.0,Calm,Calm,-,N/A,,Overcast,0,2013-01-26 12:56:00
4:56 AM,36.0,28.9,76,30.00,10.0,Calm,Calm,-,N/A,,Overcast,0,2013-01-26 13:56:00
5:56 AM,35.1,30.0,82,30.00,10.0,Calm,Calm,-,N/A,,Overcast,0,2013-01-26 14:56:00
6:07 AM,35.6,28.4,75,29.98,10.0,Calm,Calm,-,N/A,,Overcast,0,2013-01-26 15:07:00
6:48 AM,35.6,28.4,75,29.98,10.0,Calm,Calm,-,N/A,,Overcast,0,2013-01-26 15:48:00
6:56 AM,36.0,27.0,70,30.00,10.0,Calm,Calm,-,N/A,,Overcast,0,2013-01-26 15:56:00
7:56 AM,35.1,28.0,76,29.99,10.0,Calm,Calm,-,N/A,,Overcast,0,2013-01-26 16:56:00
8:56 AM,35.1,28.0,76,29.99,10.0,Calm,Calm,-,N/A,,Mostly Cloudy,0,2013-01-26 17:56:00
9:56 AM,35.1,27.0,72,29.99,10.0,Calm,Calm,-,N/A,,Mostly Cloudy,0,2013-01-26 18:56:00
10:56 AM,34.0,28.9,82,30.00,10.0,Calm,Calm,-,N/A,,Clear,0,2013-01-26 19:56:00
11:56 AM,35.1,28.9,78,30.02,10.0,Calm,Calm,-,N/A,,Overcast,0,2013-01-26 20:56:00
12:03 PM,35.6,30.2,81,30.01,10.0,Calm,Calm,-,N/A,,Overcast,0,2013-01-26 21:03:00
12:19 PM,35.6,30.2,81,30.01,6.0,WNW,3.5,-,0.00,Snow,Light Snow,290,2013-01-26 21:19:00
12:33 PM,35.6,28.4,75,30.01,5.0,Calm,Calm,-,0.00,Snow,Light Snow,0,2013-01-26 21:33:00
12:56 PM,34.0,28.9,82,30.03,6.0,Calm,Calm,-,0.00,Snow,Light Snow,0,2013-01-26 21:56:00
1:56 PM,34.0,30.0,85,30.03,8.0,Calm,Calm,-,0.00,Snow,Light Snow,0,2013-01-26 22:56:00
1:57 PM,33.8,30.2,87,30.01,6.0,Calm,Calm,-,0.00,Snow,Light Snow,0,2013-01-26 22:57:00
2:56 PM,34.0,30.9,89,30.02,6.0,Calm,Calm,-,0.00,Snow,Light Snow,0,2013-01-26 23:56:00
2:57 PM,33.8,30.2,87,30.00,5.0,Calm,Calm,-,0.00,Snow,Light Snow,0,2013-01-26 23:57:00
3:14 PM,33.8,30.2,87,30.00,4.0,Calm,Calm,-,0.00,Snow,Light Snow,0,2013-01-27 00:14:00
3:15 PM,33.8,30.2,87,30.00,4.0,Calm,Calm,-,0.00,Snow,Light Snow,0,2013-01-27 00:15:00
3:41 PM,33.8,30.2,87,30.00,3.0,Calm,Calm,-,0.00,Snow,Light Snow,0,2013-01-27 00:41:00
3:56 PM,34.0,30.9,89,30.02,3.0,NW,4.6,-,0.00,Snow,Light Snow,320,2013-01-27 00:56:00
4:08 PM,33.8,30.2,87,29.99,4.0,NW,4.6,-,0.00,Snow,Light Snow,320,2013-01-27 01:08:00
4:19 PM,33.8,30.2,87,30.00,6.0,WNW,4.6,-,0.00,Snow,Light Snow,300,2013-01-27 01:19:00
4:56 PM,34.0,30.9,89,30.01,6.0,NNW,4.6,-,0.00,Snow,Light Snow,340,2013-01-27 01:56:00
4:57 PM,33.8,30.2,87,30.00,8.0,NNW,4.6,-,0.00,Snow,Light Snow,340,2013-01-27 01:57:00
4:58 PM,33.8,30.2,87,30.00,8.0,NNW,4.6,-,0.00,Snow,Light Snow,330,2013-01-27 01:58:00
5:56 PM,34.0,30.9,89,30.02,9.0,Calm,Calm,-,0.00,,Overcast,0,2013-01-27 02:56:00
6:05 PM,33.8,30.2,87,30.00,3.0,Calm,Calm,-,0.00,Rain,Light Rain,0,2013-01-27 03:05:00
6:23 PM,33.8,30.2,87,30.01,4.0,Calm,Calm,-,0.00,Rain,Light Rain,0,2013-01-27 03:23:00
6:38 PM,33.8,30.2,87,30.01,5.0,NW,3.5,-,0.00,,Overcast,320,2013-01-27 03:38:00
6:39 PM,33.8,30.2,87,30.01,6.0,NW,3.5,-,0.00,,Overcast,320,2013-01-27 03:39:00
6:56 PM,33.1,30.9,92,30.04,6.0,WNW,4.6,-,0.00,Snow,Light Snow,290,2013-01-27 03:56:00
8:08 PM,33.8,30.2,87,30.02,5.0,Variable,3.5,-,0.00,Snow,Light Snow,0,2013-01-27 05:08:00
8:42 PM,35.6,30.2,81,30.01,10.0,NNE,15.0,-,0.00,Rain,Light Rain,30,2013-01-27 05:42:00
8:56 PM,35.1,30.0,82,30.02,10.0,NNE,15.0,-,0.00,,Overcast,20,2013-01-27 05:56:00
9:56 PM,34.0,28.9,82,30.03,10.0,NNE,13.8,-,0.00,,Overcast,30,2013-01-27 06:56:00
10:56 PM,34.0,28.0,79,30.03,10.0,NNE,9.2,-,0.00,,Overcast,30,2013-01-27 07:56:00
11:56 PM,34.0,28.0,79,30.04,10.0,NNE,11.5,-,0.00,,Overcast,30,2013-01-27 08:56:00